Regional Weather Roundup
Issued by NWS Raleigh/Durham, NC

Home | Current Version | Previous Version | Text Only | Print | Product List | Glossary On
Versions: 1 2 3 4 5 6 7 8 9 10 11 12 13 14 15 16 17 18 19 20 21 22 23 24 25 26 27
054
ASUS42 KRAH 221310
RWRRAH
NORTH CAROLINA WEATHER ROUNDUP
NATIONAL WEATHER SERVICE RALEIGH NC
900 AM EDT FRI MAY 22 2015

NOTE: "FAIR" INDICATES FEW OR NO CLOUDS BELOW 12,000 FEET WITH NO
SIGNIFICANT WEATHER AND/OR OBSTRUCTIONS TO VISIBILITY.

NCZ001-053-055-056-065-067-221400-
WESTERN NORTH CAROLINA

CITY           SKY/WX    TMP DP  RH WIND       PRES   REMARKS
ASHEVILLE      SUNNY     54  39  57 N12       30.23R
JEFFERSON      SUNNY     48  31  52 N8        30.21R
MORGANTON      SUNNY     59  39  47 N6        30.25R
HICKORY        SUNNY     59  40  49 NE5       30.20R
RUTHERFORDTON  SUNNY     59  41  52 N6        30.22R
MOUNT AIRY     SUNNY     58  41  53 NW7       30.22R
BOONE          SUNNY     47  33  57 W14G20    30.21R
$$

NCZ021-022-025-041-071-084-088-221400-
CENTRAL NORTH CAROLINA

CITY           SKY/WX    TMP DP  RH WIND       PRES   REMARKS
CHARLOTTE      SUNNY     62  39  42 NE15      30.20R
GREENSBORO     MOSUNNY   59  41  51 N5        30.19R
WINSTON-SALEM  SUNNY     59  40  49 NW9       30.20R
RALEIGH-DURHAM MOSUNNY   60  46  59 VRB5      30.18R
FORT BRAGG     MOSUNNY   60  46  59 VRB6      30.16R
FAYETTEVILLE   PTSUNNY   62  46  55 N15G22    30.16R
BURLINGTON     SUNNY     60  44  55 NW9G20    30.18R
LAURINBURG     CLOUDY    63  44  50 NE12      30.18R
$$

NCZ011-015-027-028-043-044-047-080-103-221400-
NORTHEASTERN NORTH CAROLINA

CITY           SKY/WX    TMP DP  RH WIND       PRES   REMARKS
ROCKY MT-WILSO SUNNY     62  48  60 N12       30.16R
GREENVILLE     PTSUNNY   61  52  72 N9        30.16R
WASHINGTON     MOSUNNY  N/A N/A N/A N10       30.15R
ELIZABETH CITY SUNNY     60  48  64 NW16      30.11R
MANTEO         CLOUDY    59  51  76 NW8G17    30.12R
CAPE HATTERAS  MOSUNNY   62  50  64 N8G22     30.10R
$$

NCZ078-087-090-091-093-098-101-221400-
SOUTHEASTERN NORTH CAROLINA

CITY           SKY/WX    TMP DP  RH WIND       PRES   REMARKS
LUMBERTON      PTSUNNY   64  48  56 N9G21     30.16R
GOLDSBORO      MOSUNNY   62  50  65 NE10G17   30.14R
KINSTON        SUNNY     61  52  72 N14       30.16R
KENANSVILLE    CLOUDY    59  54  81 N6        30.16R
NEW BERN       CLOUDY    62  52  69 N7        30.16R
CHERRY POINT   CLOUDY    62  51  67 N13       30.14R
BEAUFORT       CLOUDY    62  54  74 N13       30.13R
JACKSONVILLE   CLOUDY    61  53  75 N12       30.14R
WILMINGTON     PTSUNNY   63  54  72 N15       30.14R
$$




USA.gov is the U.S. government's official web portal to all federal, state and local government web resources and services.